Weather History for Franklin, NC

Change the Weather History Date:

Wednesday, February 13, 2013

  Actual Average (KTOC) Record (KTOC)
Temperature  
Mean Temperature 42 °F -  
Max Temperature 50 °F 54 °F 50 °F (2014)
Min Temperature 35 °F 32 °F 33 °F (2014)
Degree Days  
Heating Degree Days 22    
Moisture  
Dew Point 36 °F    
Average Humidity 82    
Maximum Humidity 99    
Minimum Humidity 55    
Precipitation  
Precipitation 0.21 in - - ()
Sea Level Pressure  
Sea Level Pressure 29.78 in    
Wind  
Wind Speed 4 mph (NNW)    
Max Wind Speed 18 mph    
Max Gust Speed 28 mph    
Visibility 10 miles    
Events Rain    
Averages and records for this station are not official NWS values.
T = Trace of Precipitation, MM = Missing Value Source: NWS Daily Summary

Daily Weather History Graph

Daily Weather History Graph

Search for Another Location

Airport:

Trip Planner

Search our weather history database for the weather conditions in past years. The results will help you decide how hot, cold, wet, or windy it might be!

Date:

Astronomy

Feb. 13, 2013 Rise Set
Actual Time 7:21 AM EST 6:14 PM EST
Civil Twilight 6:55 AM EST 6:40 PM EST
Nautical Twilight 6:25 AM EST 7:10 PM EST
Astronomical Twilight 5:56 AM EST 7:39 PM EST
Moon 9:00 AM EST (2/13) 10:04 PM EST (2/13)
Length of Visible Light 11h 44m
Length of Day
10h 52m
Waxing Crescent, 13% of the Moon is Illuminated
Feb 13
Waxing Crescent
Feb 17
First Quarter
Feb 25
Full
Mar 4
Last Quarter
Mar 11
New

Hourly Weather History & Observations

Time (EST) Temp. Windchill Dew Point Humidity Pressure Visibility Wind Dir Wind Speed Gust Speed Precip Events Conditions
12:15 AM 39.7 °F 36.5 °F 39.2 °F 98% 29.85 in 1.2 mi ESE 4.6 mph - 0.10 in Rain Light Rain
12:35 AM 39.4 °F - 38.8 °F 98% 29.87 in 10.0 mi Calm Calm - 0.14 in Rain Rain
12:55 AM 39.4 °F - 38.8 °F 98% 29.86 in 10.0 mi Calm Calm - 0.15 in   Drizzle
1:15 AM 39.4 °F - 38.8 °F 98% 29.85 in 7.0 mi Calm Calm - N/A Rain Rain
1:35 AM 39.4 °F - 38.8 °F 98% 29.85 in 7.0 mi Calm Calm - 0.02 in Rain Rain
1:55 AM 39.4 °F - 38.8 °F 98% 29.84 in 7.0 mi Calm Calm - 0.02 in   Drizzle
2:15 AM 39.4 °F - 38.8 °F 98% 29.83 in 10.0 mi Calm Calm - N/A   Drizzle
2:35 AM 39.4 °F - 38.8 °F 98% 29.83 in 10.0 mi Calm Calm - N/A   Overcast
2:55 AM 39.4 °F - 39.0 °F 99% 29.82 in 10.0 mi Calm Calm - 0.01 in Rain Rain
3:15 AM 39.4 °F - 38.8 °F 98% 29.80 in 10.0 mi Calm Calm - 0.01 in Rain Light Rain
3:35 AM 39.4 °F - 38.7 °F 97% 29.79 in 10.0 mi Calm Calm - 0.02 in Rain Light Rain
3:55 AM 39.4 °F - 38.8 °F 98% 29.78 in 10.0 mi Calm Calm - 0.02 in   Overcast
4:15 AM 39.4 °F - 38.7 °F 97% 29.78 in 10.0 mi Calm Calm - N/A Rain Rain
4:35 AM 39.4 °F - 38.7 °F 97% 29.78 in 7.0 mi Calm Calm - 0.01 in Rain Light Rain
4:55 AM 39.6 °F - 38.8 °F 97% 29.77 in 10.0 mi Calm Calm - 0.01 in Rain Rain
5:15 AM 39.4 °F - 38.7 °F 97% 29.76 in 10.0 mi Calm Calm - N/A   Light Drizzle
5:35 AM 39.4 °F - 38.7 °F 97% 29.75 in 10.0 mi Calm Calm - N/A   Overcast
5:55 AM 39.7 °F 35.6 °F 39.2 °F 98% 29.73 in 10.0 mi ENE 5.8 mph - N/A   Overcast
6:15 AM 39.9 °F - 39.0 °F 97% 29.74 in 10.0 mi Calm Calm - N/A   Overcast
6:35 AM 39.7 °F 37.6 °F 39.2 °F 98% 29.74 in 10.0 mi ENE 3.5 mph - N/A   Overcast
6:55 AM 40.1 °F 38.0 °F 38.8 °F 95% 29.73 in 10.0 mi East 3.5 mph - N/A   Overcast
7:15 AM 40.3 °F 35.5 °F 39.0 °F 95% 29.73 in 10.0 mi ENE 6.9 mph - N/A   Overcast
7:35 AM 40.3 °F 38.2 °F 38.7 °F 94% 29.74 in 10.0 mi East 3.5 mph - N/A   Overcast
7:55 AM 40.5 °F 37.3 °F 39.2 °F 95% 29.73 in 10.0 mi East 4.6 mph - N/A   Overcast
8:15 AM 40.8 °F 36.9 °F 39.2 °F 94% 29.72 in 10.0 mi East 5.8 mph - N/A   Overcast
8:35 AM 41.0 °F 39.0 °F 39.6 °F 95% 29.73 in 10.0 mi East 3.5 mph - N/A   Overcast
8:55 AM 41.4 °F 38.4 °F 40.1 °F 95% 29.72 in 10.0 mi East 4.6 mph - N/A   Overcast
9:15 AM 42.1 °F 39.2 °F 40.6 °F 95% 29.73 in 10.0 mi ENE 4.6 mph - N/A   Overcast
9:55 AM 43.2 °F 40.5 °F 41.4 °F 93% 29.72 in 10.0 mi East 4.6 mph - N/A   Overcast
10:15 AM 43.7 °F 42.1 °F 41.4 °F 91% 29.71 in 10.0 mi East 3.5 mph - N/A   Overcast
10:35 AM 44.1 °F - 41.2 °F 90% 29.72 in 10.0 mi Calm Calm - N/A   Overcast
10:55 AM 45.5 °F 41.8 °F 41.0 °F 84% 29.71 in 10.0 mi SE 6.9 mph - N/A   Overcast
11:15 AM 45.5 °F 41.8 °F 40.3 °F 82% 29.71 in 10.0 mi SSE 6.9 mph - N/A   Overcast
11:35 AM 46.4 °F 42.9 °F 40.5 °F 80% 29.71 in 10.0 mi SSE 6.9 mph - N/A   Overcast
11:55 AM 46.6 °F - 40.3 °F 79% 29.69 in 10.0 mi SSE 5.8 mph - N/A   Overcast
12:15 PM 47.7 °F - 40.6 °F 77% 29.69 in 10.0 mi SE 4.6 mph - N/A   Overcast
12:35 PM 49.3 °F - 39.4 °F 69% 29.68 in 10.0 mi Calm Calm - N/A   Mostly Cloudy
12:55 PM 50.0 °F - 38.5 °F 65% 29.68 in 10.0 mi WSW 4.6 mph - N/A   Overcast
1:15 PM 50.2 °F - 36.9 °F 60% 29.68 in 10.0 mi WSW 10.4 mph - N/A   Overcast
1:35 PM 50.5 °F - 35.1 °F 55% 29.68 in 10.0 mi West 18.4 mph 25.3 mph N/A   Overcast
1:55 PM 50.5 °F - 35.4 °F 56% 29.69 in 10.0 mi WNW 17.3 mph 27.6 mph N/A   Overcast
2:15 PM 48.4 °F - 37.6 °F 66% 29.69 in 5.0 mi West 15.0 mph 26.5 mph N/A Rain Light Rain
2:35 PM 48.4 °F - 38.3 °F 68% 29.69 in 7.0 mi West 16.1 mph 20.7 mph N/A   Overcast
2:55 PM 48.4 °F - 36.5 °F 64% 29.68 in 10.0 mi West 12.7 mph 24.2 mph N/A   Overcast
3:15 PM 48.9 °F - 37.4 °F 64% 29.69 in 10.0 mi West 11.5 mph 16.1 mph N/A   Overcast
3:35 PM 49.1 °F - 37.4 °F 64% 29.69 in 10.0 mi WNW 13.8 mph 20.7 mph N/A   Overcast
3:55 PM 46.6 °F - 36.7 °F 68% 29.72 in 10.0 mi West 13.8 mph 19.6 mph N/A Rain Light Rain
4:15 PM 45.7 °F 41.0 °F 36.1 °F 69% 29.73 in 10.0 mi West 9.2 mph - N/A   Light Drizzle
4:35 PM 45.0 °F 39.7 °F 36.5 °F 72% 29.73 in 10.0 mi WNW 10.4 mph - N/A Rain Light Rain
4:55 PM 43.7 °F 38.6 °F 36.0 °F 74% 29.74 in 10.0 mi North 9.2 mph 17.3 mph N/A   Overcast
5:15 PM 42.8 °F 38.6 °F 35.2 °F 75% 29.76 in 10.0 mi NW 6.9 mph - N/A   Light Drizzle
5:35 PM 42.3 °F 37.3 °F 34.2 °F 73% 29.78 in 10.0 mi NW 8.1 mph 19.6 mph N/A   Overcast
5:55 PM 41.9 °F 36.9 °F 32.2 °F 68% 29.80 in 10.0 mi North 8.1 mph - N/A   Overcast
6:15 PM 41.2 °F 36.6 °F 32.0 °F 70% 29.82 in 10.0 mi NW 6.9 mph - N/A   Light Drizzle
6:35 PM 40.1 °F 35.3 °F 32.0 °F 73% 29.83 in 10.0 mi NNW 6.9 mph 16.1 mph N/A Rain Light Rain
6:55 PM 38.7 °F 34.3 °F 31.6 °F 76% 29.83 in 10.0 mi NW 5.8 mph - N/A   Scattered Clouds
7:15 PM 38.5 °F 36.1 °F 30.2 °F 72% 29.84 in 10.0 mi NW 3.5 mph - N/A   Clear
7:35 PM 38.1 °F 32.9 °F 30.0 °F 73% 29.85 in 10.0 mi NW 6.9 mph - N/A   Mostly Cloudy
7:55 PM 38.3 °F 34.8 °F 29.1 °F 70% 29.85 in 10.0 mi NNW 4.6 mph - N/A   Mostly Cloudy
8:15 PM 37.6 °F 30.5 °F 29.3 °F 72% 29.86 in 10.0 mi NW 10.4 mph - N/A   Mostly Cloudy
8:35 PM 38.3 °F 33.9 °F 29.1 °F 70% 29.87 in 10.0 mi NNW 5.8 mph - N/A   Mostly Cloudy
8:55 PM 36.9 °F 32.2 °F 28.8 °F 72% 29.87 in 10.0 mi North 5.8 mph - N/A   Scattered Clouds
9:15 PM 36.5 °F 32.7 °F 29.1 °F 75% 29.87 in 10.0 mi NW 4.6 mph - N/A   Clear
9:35 PM 36.1 °F - 28.8 °F 75% 29.88 in 10.0 mi Calm Calm - N/A   Clear
9:55 PM 36.3 °F - 28.6 °F 74% 29.88 in 10.0 mi Calm Calm - N/A   Clear
10:15 PM 36.0 °F 30.3 °F 28.4 °F 74% 29.89 in 10.0 mi North 6.9 mph - N/A   Clear
10:35 PM 35.1 °F - 28.4 °F 77% 29.90 in 10.0 mi Calm Calm - N/A   Clear
10:55 PM 35.1 °F 32.2 °F 28.2 °F 76% 29.90 in 10.0 mi North 3.5 mph - N/A   Clear
11:15 PM 35.1 °F 29.3 °F 28.2 °F 76% 29.90 in 10.0 mi North 6.9 mph - N/A   Clear
11:35 PM 35.2 °F 32.4 °F 28.2 °F 76% 29.91 in 10.0 mi NW 3.5 mph - N/A   Clear
11:55 PM 35.1 °F 32.2 °F 28.0 °F 76% 29.92 in 10.0 mi North 3.5 mph - N/A   Clear